When you browse on this site, cookies collect data to enhance your experience and personalize the content and advertising you see.
Visit our Privacy Policy to learn more. By continuing to use the site, you agree to this use of cookies and data.
  • In Spain
  • List of Countries
  • For 7 days
  • Water Temperature
  • Satellite Maps
  • Weather Map
  • Weather Widgets
  • user-avatar
    Login

    Hourly Weather Pamporovo

    Today, 22 January, Tuesday

    Time Temperature Precipitation Wind Pressure Humidity
    00:00 -2°C° 0 mm 1 mps 622 mmHg 97%
    01:00 -4°C° 0 mm 0 mps 622 mmHg 98%
    02:00 -3°C° 0 mm 1 mps 622 mmHg 98%
    03:00 -3°C° 0.1 mm 1 mps 622 mmHg 98%
    04:00 -3°C° 0.1 mm 1 mps 621 mmHg 98%
    05:00 -3°C° 0.1 mm 1 mps 621 mmHg 97%
    06:00 -3°C° 0.2 mm 1 mps 621 mmHg 97%
    07:00 -3°C° 0.2 mm 1 mps 621 mmHg 97%
    08:00 -4°C° 0 mm 1 mps 621 mmHg 97%
    09:00 -3°C° 0.1 mm 1 mps 621 mmHg 96%
    10:00 -4°C° 0.1 mm 2 mps 621 mmHg 94%
    11:00 -3°C° 0.1 mm 2 mps 621 mmHg 93%
    12:00 -3°C° 0.1 mm 2 mps 621 mmHg 93%
    13:00 -3°C° 0.1 mm 2 mps 620 mmHg 93%
    14:00 -2°C° 0.1 mm 2 mps 620 mmHg 93%
    15:00 -3°C° 0.1 mm 2 mps 619 mmHg 94%
    16:00 -3°C° 0.1 mm 2 mps 619 mmHg 95%
    17:00 -3°C° 0.1 mm 2 mps 618 mmHg 96%
    18:00 -3°C° 0.3 mm 2 mps 618 mmHg 96%
    19:00 -3°C° 0.3 mm 2 mps 617 mmHg 96%
    20:00 -3°C° 0.3 mm 2 mps 617 mmHg 96%
    21:00 -3°C° 0.8 mm 2 mps 617 mmHg 96%
    22:00 -3°C° 0.8 mm 2 mps 616 mmHg 96%
    23:00 -3°C° 0.8 mm 2 mps 616 mmHg 97%

    Tomorrow, 23 January, Wednesday

    Time Temperature Precipitation Wind Pressure Humidity
    00:00 -3°C° 0.4 mm 2 mps 616 mmHg 97%
    01:00 -2°C° 0.4 mm 2 mps 615 mmHg 97%
    02:00 -2°C° 0.4 mm 2 mps 615 mmHg 98%
    03:00 -2°C° 0 mm 2 mps 614 mmHg 97%
    04:00 -2°C° 0 mm 2 mps 614 mmHg 97%
    05:00 -2°C° 0 mm 2 mps 614 mmHg 97%
    06:00 -3°C° 0 mm 2 mps 614 mmHg 96%
    07:00 -3°C° 0 mm 2 mps 613 mmHg 96%
    08:00 -3°C° 0 mm 2 mps 613 mmHg 95%
    09:00 -2°C° 0 mm 2 mps 614 mmHg 93%
    10:00 -1°C° 0 mm 2 mps 614 mmHg 91%
    11:00 +1°C° 0 mm 2 mps 615 mmHg 89%
    12:00 0°C° 0 mm 3 mps 615 mmHg 88%
    13:00 0°C° 0 mm 3 mps 614 mmHg 88%
    14:00 0°C° 0 mm 3 mps 614 mmHg 87%
    15:00 0°C° 0.1 mm 3 mps 614 mmHg 90%
    16:00 -1°C° 0.1 mm 2 mps 613 mmHg 93%
    17:00 -1°C° 0.1 mm 2 mps 613 mmHg 97%
    18:00 -1°C° 0.4 mm 3 mps 613 mmHg 97%
    19:00 -1°C° 0.4 mm 3 mps 612 mmHg 97%
    20:00 -2°C° 0.4 mm 4 mps 612 mmHg 98%
    21:00 -2°C° 0.6 mm 4 mps 612 mmHg 98%
    22:00 -3°C° 0.6 mm 4 mps 612 mmHg 98%
    23:00 -3°C° 0.6 mm 4 mps 612 mmHg 98%

    Day after tomorrow, 24 January, Thursday

    Time Temperature Precipitation Wind Pressure Humidity
    00:00 -3°C° 0.9 mm 4 mps 611 mmHg 98%
    01:00 -1°C° 0.9 mm 3 mps 611 mmHg 98%
    02:00 -1°C° 0.9 mm 3 mps 611 mmHg 98%
    03:00 -2°C° 0.9 mm 2 mps 610 mmHg 98%
    04:00 -2°C° 0.9 mm 2 mps 610 mmHg 98%
    05:00 0°C° 0.9 mm 1 mps 609 mmHg 98%
    06:00 0°C° 1.3 mm 1 mps 609 mmHg 98%
    07:00 0°C° 1.3 mm 1 mps 609 mmHg 98%
    08:00 -1°C° 1.3 mm 0 mps 609 mmHg 98%
    09:00 -1°C° 2.7 mm 0 mps 608 mmHg 98%
    10:00 0°C° 2.7 mm 1 mps 608 mmHg 98%
    11:00 0°C° 2.7 mm 1 mps 608 mmHg 98%
    12:00 0°C° 1.2 mm 1 mps 608 mmHg 98%
    13:00 0°C° 1.2 mm 1 mps 608 mmHg 98%
    14:00 0°C° 1.2 mm 1 mps 607 mmHg 98%
    15:00 0°C° 1.7 mm 1 mps 607 mmHg 98%
    16:00 0°C° 1.7 mm 1 mps 607 mmHg 98%
    17:00 0°C° 1.7 mm 1 mps 607 mmHg 98%
    18:00 0°C° 2.7 mm 1 mps 607 mmHg 98%
    19:00 0°C° 2.7 mm 1 mps 607 mmHg 98%
    20:00 0°C° 2.7 mm 1 mps 608 mmHg 97%
    21:00 0°C° 2.3 mm 1 mps 608 mmHg 97%
    22:00 0°C° 2.3 mm 1 mps 608 mmHg 96%
    23:00 0°C° 2.3 mm 1 mps 609 mmHg 96%

    25 January, Friday

    Time Temperature Precipitation Wind Pressure Humidity
    00:00 -1°C° 0.1 mm 1 mps 609 mmHg 96%
    01:00 -1°C° 0.1 mm 1 mps 609 mmHg 96%
    02:00 -3°C° 0.1 mm 2 mps 609 mmHg 96%
    03:00 -1°C° 0 mm 1 mps 609 mmHg 96%
    04:00 -2°C° 0 mm 1 mps 609 mmHg 95%
    05:00 -2°C° 0 mm 1 mps 608 mmHg 95%
    06:00 -2°C° 2.5 mm 1 mps 608 mmHg 96%
    07:00 -1°C° 2.5 mm 1 mps 609 mmHg 97%
    08:00 -1°C° 2.5 mm 1 mps 609 mmHg 98%
    09:00 -2°C° 4.5 mm 2 mps 609 mmHg 98%
    10:00 -2°C° 4.5 mm 2 mps 608 mmHg 99%
    11:00 -2°C° 4.5 mm 3 mps 608 mmHg 99%
    12:00 -2°C° 4.1 mm 3 mps 608 mmHg 99%
    13:00 -2°C° 4.1 mm 3 mps 607 mmHg 99%
    14:00 -2°C° 4.1 mm 3 mps 607 mmHg 98%
    15:00 -2°C° 1.6 mm 3 mps 607 mmHg 98%
    16:00 -2°C° 1.6 mm 3 mps 607 mmHg 98%
    17:00 -2°C° 1.6 mm 3 mps 607 mmHg 98%
    18:00 -2°C° 0.2 mm 3 mps 607 mmHg 98%
    19:00 -4°C° 0.2 mm 3 mps 607 mmHg 97%
    20:00 -3°C° 0.2 mm 2 mps 607 mmHg 97%
    21:00 -3°C° 0.3 mm 2 mps 607 mmHg 97%
    22:00 -3°C° 0.3 mm 2 mps 607 mmHg 97%
    23:00 -1°C° 0.3 mm 1 mps 608 mmHg 97%

    26 January, Saturday

    Time Temperature Precipitation Wind Pressure Humidity
    00:00 -1°C° 0.7 mm 1 mps 608 mmHg 98%
    01:00 -1°C° 0.7 mm 1 mps 608 mmHg 98%
    02:00 -1°C° 0.7 mm 1 mps 607 mmHg 98%
    03:00 -1°C° 2.9 mm 1 mps 607 mmHg 98%
    04:00 -1°C° 2.9 mm 1 mps 607 mmHg 98%
    05:00 -1°C° 2.9 mm 1 mps 607 mmHg 98%
    06:00 -1°C° 1.7 mm 1 mps 607 mmHg 98%
    07:00 -1°C° 1.7 mm 1 mps 607 mmHg 98%
    08:00 -1°C° 1.7 mm 1 mps 608 mmHg 98%
    09:00 -1°C° 0.4 mm 1 mps 608 mmHg 98%
    10:00 -1°C° 0.4 mm 1 mps 608 mmHg 98%
    11:00 -2°C° 0.4 mm 2 mps 608 mmHg 98%
    12:00 -3°C° 1.8 mm 2 mps 608 mmHg 97%
    13:00 -3°C° 1.8 mm 2 mps 608 mmHg 97%
    14:00 -3°C° 1.8 mm 2 mps 608 mmHg 97%
    15:00 -3°C° 3.4 mm 2 mps 608 mmHg 96%
    16:00 -3°C° 3.3 mm 2 mps 608 mmHg 96%
    17:00 -4°C° 3.3 mm 2 mps 608 mmHg 95%
    18:00 -4°C° 1.4 mm 2 mps 609 mmHg 95%
    19:00 -4°C° 1.4 mm 2 mps 609 mmHg 95%
    20:00 -4°C° 1.4 mm 2 mps 609 mmHg 95%
    21:00 -5°C° 0.2 mm 2 mps 609 mmHg 95%
    22:00 -5°C° 0.2 mm 2 mps 609 mmHg 95%
    23:00 -3°C° 0.2 mm 1 mps 610 mmHg 95%

    27 January, Sunday

    Time Temperature Precipitation Wind Pressure Humidity
    00:00 -3°C° 1 mm 1 mps 610 mmHg 95%
    01:00 -3°C° 1 mm 1 mps 610 mmHg 96%
    02:00 -3°C° 1 mm 1 mps 610 mmHg 96%
    03:00 -3°C° 0.3 mm 1 mps 610 mmHg 96%
    04:00 -4°C° 0.3 mm 1 mps 610 mmHg 96%
    05:00 -4°C° 0.3 mm 1 mps 610 mmHg 96%
    06:00 -5°C° 0.1 mm 0 mps 610 mmHg 96%
    07:00 -4°C° 0.1 mm 0 mps 611 mmHg 96%
    08:00 -4°C° 0.1 mm 0 mps 611 mmHg 96%
    09:00 -4°C° 0 mm 0 mps 611 mmHg 96%
    10:00 -3°C° 0 mm 0 mps 612 mmHg 96%
    11:00 -2°C° 0 mm 0 mps 612 mmHg 96%
    12:00 -1°C° 0.1 mm 1 mps 612 mmHg 95%
    13:00 -1°C° 0.1 mm 1 mps 612 mmHg 95%
    14:00 -1°C° 0.1 mm 1 mps 612 mmHg 95%
    15:00 -1°C° 0.2 mm 1 mps 613 mmHg 96%
    16:00 -1°C° 0.2 mm 1 mps 613 mmHg 96%
    17:00 -2°C° 0.2 mm 1 mps 613 mmHg 97%
    18:00 -3°C° 0.2 mm 0 mps 613 mmHg 97%
    19:00 -3°C° 0.2 mm 0 mps 614 mmHg 97%
    20:00 -3°C° 0.2 mm 0 mps 614 mmHg 97%
    21:00 -4°C° 0.1 mm 0 mps 614 mmHg 97%
    22:00 -4°C° 0.1 mm 0 mps 615 mmHg 97%
    23:00 -4°C° 0.1 mm 0 mps 615 mmHg 97%
    Show more